Location: Unspecified
(0.0000°N, 0.0000°E)
Time: 04:16:52
(UTC+00:00)

Explorer 7 - Pass Details

Date: 05 October 2020
Orbit: 484 x 678 km, 50.3° (Epoch: 28 October)

Event Time Altitude Azimuth Distance (km) Brightness Sun altitude
Rises 20:13:46 0° 249° (WSW) 2,570 11.2 -36.2°
Enters shadow 20:16:24 - 270° (W) 1,786 10.2 -36.9°
Reaches altitude 10° 20:16:44 10° 274° (W) 1,712 - -37.0°
Maximum altitude 20:18:54 14° 309° (NW) 1,472 - -37.5°
Drops below altitude 10° 20:21:08 10° 343° (NNW) 1,758 - -38.1°
Sets 20:24:15 0° 8° (N) 2,689 - -38.8°
